• en France
  • Liste des pays
  • À 7 jours
  • Température de l'eau
  • Carte satellitaire
  • Carte météo
  • Widgets météo
  • user-avatar
    Se connecter

    Météo par heure à Nice

    Ce jour, 16 Octobre, Mardi

    Heure Température Précipitation Vent Pression Humidité
    00:00 +19°C° 0 mm 6 m/s 759 mmHg 74%
    01:00 +19°C° 0.2 mm 6 m/s 759 mmHg 74%
    02:00 +17°C° 0.2 mm 6 m/s 759 mmHg 75%
    03:00 +17°C° 0.2 mm 5 m/s 759 mmHg 75%
    04:00 +17°C° 0.4 mm 5 m/s 759 mmHg 76%
    05:00 +17°C° 0.4 mm 5 m/s 759 mmHg 76%
    06:00 +17°C° 0 mm 5 m/s 759 mmHg 76%
    07:00 +19°C° 0.6 mm 5 m/s 759 mmHg 75%
    08:00 +20°C° 0.6 mm 5 m/s 760 mmHg 73%
    09:00 +21°C° 0.6 mm 6 m/s 760 mmHg 71%
    10:00 +21°C° 0.5 mm 6 m/s 760 mmHg 71%
    11:00 +21°C° 0.5 mm 6 m/s 760 mmHg 71%
    12:00 +21°C° 0.5 mm 6 m/s 760 mmHg 72%
    13:00 +20°C° 0.3 mm 5 m/s 760 mmHg 73%
    14:00 +20°C° 0.3 mm 5 m/s 760 mmHg 74%
    15:00 +20°C° 0.3 mm 5 m/s 759 mmHg 74%
    16:00 +20°C° 0.1 mm 5 m/s 760 mmHg 75%
    17:00 +19°C° 0.1 mm 5 m/s 760 mmHg 76%
    18:00 +19°C° 0.1 mm 4 m/s 760 mmHg 76%
    19:00 +19°C° 0.3 mm 4 m/s 760 mmHg 76%
    20:00 +19°C° 0.3 mm 4 m/s 760 mmHg 76%
    21:00 +19°C° 0.3 mm 4 m/s 760 mmHg 76%
    22:00 +19°C° 0.3 mm 4 m/s 760 mmHg 77%
    23:00 +18°C° 0.3 mm 4 m/s 760 mmHg 77%

    Demain, 17 Octobre, Mercredi

    Heure Température Précipitation Vent Pression Humidité
    00:00 +18°C° 0.3 mm 4 m/s 760 mmHg 77%
    01:00 +18°C° 0.2 mm 4 m/s 759 mmHg 77%
    02:00 +18°C° 0.2 mm 4 m/s 759 mmHg 77%
    03:00 +18°C° 0.2 mm 4 m/s 759 mmHg 77%
    04:00 +18°C° 0.1 mm 4 m/s 759 mmHg 78%
    05:00 +18°C° 0.1 mm 4 m/s 759 mmHg 78%
    06:00 +18°C° 0.1 mm 4 m/s 759 mmHg 78%
    07:00 +19°C° 0 mm 4 m/s 759 mmHg 73%
    08:00 +21°C° 0 mm 4 m/s 759 mmHg 68%
    09:00 +23°C° 0 mm 4 m/s 759 mmHg 63%
    10:00 +23°C° 0 mm 4 m/s 759 mmHg 61%
    11:00 +25°C° 0 mm 4 m/s 759 mmHg 59%
    12:00 +26°C° 0 mm 5 m/s 758 mmHg 56%
    13:00 +25°C° 0 mm 5 m/s 758 mmHg 59%
    14:00 +25°C° 0 mm 4 m/s 758 mmHg 61%
    15:00 +23°C° 0 mm 4 m/s 758 mmHg 64%
    16:00 +22°C° 0 mm 4 m/s 758 mmHg 69%
    17:00 +21°C° 0 mm 4 m/s 758 mmHg 74%
    18:00 +20°C° 0 mm 4 m/s 758 mmHg 79%
    19:00 +20°C° 0 mm 4 m/s 758 mmHg 78%
    20:00 +19°C° 0 mm 4 m/s 758 mmHg 77%
    21:00 +19°C° 0 mm 4 m/s 758 mmHg 77%
    22:00 +19°C° 0 mm 4 m/s 758 mmHg 76%
    23:00 +19°C° 0 mm 4 m/s 758 mmHg 76%

    Après-demain, 18 Octobre, Jeudi

    Heure Température Précipitation Vent Pression Humidité
    00:00 +19°C° 0 mm 5 m/s 758 mmHg 75%
    01:00 +19°C° 0.3 mm 4 m/s 758 mmHg 76%
    02:00 +19°C° 0.3 mm 4 m/s 758 mmHg 76%
    03:00 +19°C° 0.3 mm 4 m/s 758 mmHg 76%
    04:00 +18°C° 0.3 mm 4 m/s 758 mmHg 77%
    05:00 +18°C° 0.3 mm 4 m/s 758 mmHg 77%
    06:00 +18°C° 0.3 mm 4 m/s 757 mmHg 78%
    07:00 +20°C° 0.2 mm 4 m/s 758 mmHg 74%
    08:00 +21°C° 0.2 mm 4 m/s 758 mmHg 70%
    09:00 +22°C° 0.2 mm 4 m/s 758 mmHg 66%
    10:00 +23°C° 0 mm 4 m/s 758 mmHg 63%
    11:00 +25°C° 0 mm 5 m/s 758 mmHg 59%
    12:00 +26°C° 0 mm 5 m/s 758 mmHg 55%
    13:00 +26°C° 0 mm 5 m/s 758 mmHg 56%
    14:00 +26°C° 0 mm 5 m/s 757 mmHg 57%
    15:00 +25°C° 0 mm 4 m/s 757 mmHg 58%
    16:00 +23°C° 0 mm 4 m/s 757 mmHg 64%
    17:00 +21°C° 0 mm 4 m/s 758 mmHg 70%
    18:00 +20°C° 0 mm 4 m/s 758 mmHg 76%
    19:00 +20°C° 0 mm 4 m/s 758 mmHg 75%
    20:00 +19°C° 0 mm 4 m/s 759 mmHg 74%
    21:00 +19°C° 0 mm 4 m/s 759 mmHg 73%
    22:00 +19°C° 0 mm 4 m/s 759 mmHg 73%
    23:00 +19°C° 0 mm 4 m/s 759 mmHg 73%

    19 Octobre, Vendredi

    Heure Température Précipitation Vent Pression Humidité
    00:00 +19°C° 0 mm 4 m/s 759 mmHg 72%
    01:00 +19°C° 0 mm 4 m/s 759 mmHg 72%
    02:00 +19°C° 0 mm 4 m/s 759 mmHg 72%
    03:00 +18°C° 0 mm 3 m/s 759 mmHg 72%
    04:00 +18°C° 0 mm 3 m/s 759 mmHg 72%
    05:00 +18°C° 0 mm 3 m/s 759 mmHg 73%
    06:00 +18°C° 0 mm 3 m/s 759 mmHg 73%
    07:00 +21°C° 0 mm 3 m/s 760 mmHg 66%
    08:00 +24°C° 0 mm 2 m/s 760 mmHg 60%
    09:00 +26°C° 0 mm 2 m/s 760 mmHg 53%
    10:00 +27°C° 0 mm 2 m/s 760 mmHg 51%
    11:00 +27°C° 0 mm 3 m/s 760 mmHg 50%
    12:00 +28°C° 0 mm 3 m/s 760 mmHg 48%
    13:00 +27°C° 0 mm 3 m/s 760 mmHg 51%
    14:00 +27°C° 0 mm 3 m/s 760 mmHg 55%
    15:00 +26°C° 0 mm 2 m/s 760 mmHg 58%
    16:00 +24°C° 0 mm 2 m/s 760 mmHg 65%
    17:00 +23°C° 0 mm 1 m/s 760 mmHg 73%
    18:00 +21°C° 0 mm 1 m/s 760 mmHg 81%
    19:00 +21°C° 0 mm 1 m/s 761 mmHg 80%
    20:00 +20°C° 0 mm 2 m/s 761 mmHg 79%
    21:00 +20°C° 0 mm 2 m/s 761 mmHg 78%
    22:00 +19°C° 0 mm 2 m/s 761 mmHg 77%
    23:00 +19°C° 0 mm 2 m/s 761 mmHg 76%

    20 Octobre, Samedi

    Heure Température Précipitation Vent Pression Humidité
    00:00 +19°C° 0 mm 2 m/s 761 mmHg 75%
    01:00 +19°C° 0 mm 2 m/s 761 mmHg 75%
    02:00 +19°C° 0 mm 2 m/s 761 mmHg 75%
    03:00 +19°C° 0 mm 2 m/s 761 mmHg 75%
    04:00 +19°C° 0 mm 2 m/s 761 mmHg 75%
    05:00 +19°C° 0 mm 2 m/s 761 mmHg 75%
    06:00 +19°C° 0 mm 2 m/s 761 mmHg 75%
    07:00 +20°C° 0 mm 2 m/s 761 mmHg 70%
    08:00 +23°C° 0 mm 2 m/s 762 mmHg 66%
    09:00 +25°C° 0 mm 1 m/s 762 mmHg 61%
    10:00 +25°C° 0.1 mm 2 m/s 762 mmHg 61%
    11:00 +25°C° 0.1 mm 2 m/s 762 mmHg 61%
    12:00 +25°C° 0.1 mm 2 m/s 762 mmHg 61%
    13:00 +25°C° 0.3 mm 2 m/s 762 mmHg 64%
    14:00 +24°C° 0.3 mm 2 m/s 761 mmHg 67%
    15:00 +24°C° 0.3 mm 2 m/s 761 mmHg 70%
    16:00 +23°C° 0.1 mm 1 m/s 761 mmHg 73%
    17:00 +22°C° 0.1 mm 1 m/s 761 mmHg 76%
    18:00 +21°C° 0.1 mm 1 m/s 762 mmHg 80%
    19:00 +20°C° 0 mm 1 m/s 762 mmHg 78%
    20:00 +19°C° 0 mm 2 m/s 762 mmHg 76%
    21:00 +19°C° 0 mm 2 m/s 762 mmHg 75%
    22:00 +19°C° 0 mm 2 m/s 762 mmHg 73%
    23:00 +18°C° 0 mm 2 m/s 762 mmHg 71%

    21 Octobre, Dimanche

    Heure Température Précipitation Vent Pression Humidité
    00:00 +18°C° 0 mm 2 m/s 761 mmHg 69%
    01:00 +18°C° 0 mm 2 m/s 761 mmHg 67%
    02:00 +18°C° 0 mm 2 m/s 761 mmHg 65%
    03:00 +18°C° 0 mm 2 m/s 761 mmHg 63%
    04:00 +18°C° 0 mm 2 m/s 760 mmHg 62%
    05:00 +18°C° 0 mm 2 m/s 760 mmHg 60%
    06:00 +19°C° 0 mm 1 m/s 760 mmHg 59%
    07:00 +21°C° 0 mm 1 m/s 760 mmHg 53%
    08:00 +23°C° 0 mm 1 m/s 760 mmHg 48%
    09:00 +26°C° 0 mm 1 m/s 760 mmHg 42%
    10:00 +26°C° 0 mm 1 m/s 760 mmHg 42%
    11:00 +27°C° 0 mm 1 m/s 759 mmHg 41%
    12:00 +28°C° 0 mm 2 m/s 759 mmHg 41%
    13:00 +27°C° 0 mm 2 m/s 759 mmHg 45%
    14:00 +26°C° 0 mm 2 m/s 758 mmHg 48%
    15:00 +25°C° 0 mm 1 m/s 758 mmHg 52%
    16:00 +23°C° 0 mm 2 m/s 758 mmHg 61%
    17:00 +20°C° 0 mm 2 m/s 759 mmHg 70%
    18:00 +19°C° 0 mm 2 m/s 759 mmHg 79%
    19:00 +18°C° 0 mm 3 m/s 760 mmHg 79%
    20:00 +18°C° 0 mm 4 m/s 760 mmHg 78%
    21:00 +18°C° 0 mm 4 m/s 760 mmHg 78%
    22:00 +16°C° 0 mm 5 m/s 761 mmHg 80%
    23:00 +16°C° 0 mm 6 m/s 761 mmHg 81%
    Voir plus